Paris, IL

5:15 AM CDT on March 27, 2017 (GMT -0500)
Edgar County

Weather History for KPRG - April, 2013

Change the Weather History Date:

Friday, April 5, 2013

  Actual Average (KHUF) Record (KHUF)
Temperature  
Mean Temperature 46 °F -  
Max Temperature 60 °F 57 °F 74 °F (1985)
Min Temperature 32 °F 37 °F 23 °F (1992)
Degree Days  
Heating Degree Days 19    
Moisture  
Dew Point 28 °F    
Average Humidity 51    
Maximum Humidity 80    
Minimum Humidity 31    
Precipitation  
Precipitation 0.00 in - - ()
Sea Level Pressure  
Sea Level Pressure 30.10 in    
Wind  
Wind Speed 5 mph (North)    
Max Wind Speed 12 mph    
Max Gust Speed 17 mph    
Visibility 10 miles    
Events      
Averages and records for this station are not official NWS values.
T = Trace of Precipitation, MM = Missing Value Source: NWS Daily Summary

Daily Weather History Graph

Daily Weather History Graph

Search for Another Location

Airport or City:

Trip Planner

Search our weather history database for the weather conditions in past years. The results will help you decide how hot, cold, wet, or windy it might be!

Date:

Astronomy

Apr. 05, 2013 Rise Set
Actual Time 6:28 AM CDT 7:19 PM CDT
Civil Twilight 6:00 AM CDT 7:46 PM CDT
Nautical Twilight 5:28 AM CDT 8:18 PM CDT
Astronomical Twilight 4:54 AM CDT 8:52 PM CDT
Moon 3:34 AM CDT (4/5) 2:43 PM CDT (4/5)
Length of Visible Light 13h 45m
Length of Day
12h 50m
Waning Crescent, 23% of the Moon is Illuminated
Apr 5
Waning Crescent
Apr 10
New
Apr 18
First Quarter
Apr 25
Full
May 2
Last Quarter

Hourly Weather History & Observations

Time (CDT) Temp. Windchill Dew Point Humidity Pressure Visibility Wind Dir Wind Speed Gust Speed Precip Events Conditions
12:15 AM 33.3 °F - 25.7 °F 74% 30.02 in 10.0 mi Calm Calm - N/A   Clear
12:35 AM 35.6 °F - 24.1 °F 63% 30.02 in 10.0 mi Calm Calm - N/A   Clear
12:55 AM 36.5 °F 33.9 °F 23.7 °F 60% 30.02 in 10.0 mi West 3.5 mph - N/A   Clear
1:15 AM 34.2 °F 31.2 °F 23.9 °F 66% 30.03 in 10.0 mi West 3.5 mph - N/A   Clear
1:35 AM 34.2 °F 30.0 °F 23.9 °F 66% 30.02 in 10.0 mi West 4.6 mph - N/A   Clear
1:55 AM 34.9 °F 32.0 °F 23.9 °F 64% 30.02 in 10.0 mi West 3.5 mph - N/A   Clear
2:15 AM 34.2 °F 29.0 °F 23.9 °F 66% 30.02 in 10.0 mi West 5.8 mph - N/A   Clear
2:35 AM 35.8 °F 30.9 °F 23.9 °F 62% 30.02 in 10.0 mi West 5.8 mph - N/A   Clear
2:55 AM 35.8 °F 30.9 °F 23.9 °F 62% 30.02 in 10.0 mi West 5.8 mph - N/A   Clear
3:15 AM 35.1 °F 30.1 °F 23.9 °F 64% 30.02 in 10.0 mi West 5.8 mph - N/A   Clear
3:35 AM 35.2 °F 30.3 °F 24.4 °F 65% 30.03 in 10.0 mi West 5.8 mph - N/A   Clear
3:55 AM 35.1 °F 28.6 °F 24.8 °F 66% 30.03 in 10.0 mi West 8.1 mph - N/A   Clear
4:15 AM 35.6 °F 29.9 °F 24.6 °F 64% 30.04 in 10.0 mi West 6.9 mph - N/A   Clear
4:35 AM 34.7 °F - 25.3 °F 69% 30.04 in 10.0 mi Calm Calm - N/A   Clear
4:55 AM 35.1 °F 29.3 °F 25.7 °F 69% 30.05 in 10.0 mi WNW 6.9 mph - N/A   Clear
5:15 AM 34.2 °F 29.0 °F 25.7 °F 71% 30.05 in 10.0 mi WNW 5.8 mph - N/A   Clear
5:35 AM 33.4 °F 27.3 °F 26.2 °F 75% 30.06 in 10.0 mi WNW 6.9 mph - N/A   Clear
5:55 AM 33.4 °F 29.1 °F 26.6 °F 76% 30.07 in 10.0 mi NW 4.6 mph - N/A   Clear
6:15 AM 32.9 °F 28.5 °F 27.3 °F 80% 30.07 in 10.0 mi NNW 4.6 mph - N/A   Clear
6:35 AM 34.2 °F 31.2 °F 28.2 °F 79% 30.08 in 10.0 mi NNW 3.5 mph - N/A   Clear
6:55 AM 34.7 °F - 28.9 °F 79% 30.09 in 10.0 mi Calm Calm - N/A   Clear
7:15 AM 36.0 °F - 30.0 °F 79% 30.10 in 10.0 mi Calm Calm - N/A   Clear
7:35 AM 39.7 °F 37.6 °F 30.9 °F 71% 30.10 in 10.0 mi North 3.5 mph - N/A   Clear
7:55 AM 42.1 °F 38.4 °F 31.8 °F 67% 30.11 in 10.0 mi North 5.8 mph - N/A   Clear
8:15 AM 43.9 °F 38.8 °F 32.0 °F 63% 30.12 in 10.0 mi NNE 9.2 mph - N/A   Clear
8:35 AM 45.1 °F 41.4 °F 32.7 °F 62% 30.13 in 10.0 mi North 6.9 mph - N/A   Clear
8:55 AM 46.4 °F 42.9 °F 32.9 °F 59% 30.13 in 10.0 mi North 6.9 mph - N/A   Clear
9:15 AM 48.0 °F - 32.9 °F 56% 30.13 in 10.0 mi NNE 8.1 mph - N/A   Clear
9:35 AM 48.9 °F - 33.3 °F 55% 30.13 in 10.0 mi NNE 8.1 mph - N/A   Clear
9:55 AM 50.4 °F - 33.8 °F 53% 30.13 in 10.0 mi NNE 9.2 mph - N/A   Clear
10:15 AM 51.8 °F - 34.3 °F 51% 30.14 in 10.0 mi North 4.6 mph - N/A   Clear
10:35 AM 52.0 °F - 34.0 °F 50% 30.15 in 10.0 mi NNE 9.2 mph 16.1 mph N/A   Clear
10:55 AM 53.6 °F - 33.6 °F 47% 30.15 in 10.0 mi North 10.4 mph - N/A   Clear
11:15 AM 53.8 °F - 33.6 °F 46% 30.15 in 10.0 mi North 8.1 mph - N/A   Clear
11:35 AM 54.5 °F - 33.8 °F 46% 30.15 in 10.0 mi NNE 10.4 mph - N/A   Clear
11:55 AM 55.0 °F - 34.7 °F 46% 30.15 in 10.0 mi NNE 5.8 mph 10.4 mph N/A   Clear
12:15 PM 56.3 °F - 32.2 °F 40% 30.15 in 10.0 mi North 11.5 mph - N/A   Clear
12:35 PM 56.7 °F - 30.9 °F 38% 30.14 in 10.0 mi North 6.9 mph 17.3 mph N/A   Clear
12:55 PM 57.4 °F - 30.6 °F 36% 30.14 in 10.0 mi North 10.4 mph 16.1 mph N/A   Clear
1:15 PM 58.1 °F - 31.6 °F 37% 30.13 in 10.0 mi NNE 8.1 mph 17.3 mph N/A   Clear
1:35 PM 57.9 °F - 31.8 °F 37% 30.13 in 10.0 mi NE 6.9 mph - N/A   Clear
1:55 PM 57.9 °F - 31.6 °F 37% 30.12 in 10.0 mi NW 5.8 mph - N/A   Clear
2:15 PM 59.2 °F - 32.4 °F 36% 30.11 in 10.0 mi North 10.4 mph - N/A   Clear
2:35 PM 59.0 °F - 31.8 °F 36% 30.11 in 10.0 mi NE 6.9 mph - N/A   Clear
2:55 PM 60.1 °F - 30.4 °F 33% 30.10 in 10.0 mi North 5.8 mph - N/A   Clear
3:15 PM 60.3 °F - 30.0 °F 32% 30.09 in 10.0 mi North 8.1 mph - N/A   Clear
3:35 PM 59.9 °F - 30.9 °F 33% 30.08 in 10.0 mi NE 10.4 mph 16.1 mph N/A   Clear
3:55 PM 60.1 °F - 31.3 °F 34% 30.08 in 10.0 mi NNE 6.9 mph - N/A   Clear
4:15 PM 60.1 °F - 29.7 °F 32% 30.09 in 10.0 mi North 9.2 mph - N/A   Clear
4:35 PM 60.3 °F - 29.1 °F 31% 30.09 in 10.0 mi NNE 4.6 mph - N/A   Clear
4:55 PM 59.0 °F - 28.0 °F 31% 30.10 in 10.0 mi NE 5.8 mph - N/A   Clear
5:15 PM 58.5 °F - 28.6 °F 32% 30.10 in 10.0 mi North 6.9 mph - N/A   Clear
5:35 PM 59.2 °F - 29.1 °F 32% 30.10 in 10.0 mi North 5.8 mph - N/A   Clear
5:55 PM 58.3 °F - 27.9 °F 31% 30.10 in 10.0 mi North 6.9 mph - N/A   Clear
6:15 PM 58.1 °F - 27.7 °F 31% 30.10 in 10.0 mi North 4.6 mph - N/A   Clear
6:35 PM 57.0 °F - 27.3 °F 32% 30.10 in 10.0 mi NE 6.9 mph - N/A   Clear
6:55 PM 55.0 °F - 27.0 °F 34% 30.10 in 10.0 mi NNE 4.6 mph - N/A   Clear
7:15 PM 53.8 °F - 26.6 °F 35% 30.12 in 10.0 mi North 3.5 mph - N/A   Clear
7:35 PM 52.9 °F - 26.2 °F 36% 30.12 in 10.0 mi NNE 3.5 mph - N/A   Clear
7:55 PM 52.2 °F - 25.5 °F 36% 30.12 in 10.0 mi NNE 3.5 mph - N/A   Clear
8:15 PM 51.1 °F - 25.3 °F 37% 30.13 in 10.0 mi NNE 4.6 mph - N/A   Clear
8:35 PM 49.6 °F - 25.2 °F 38% 30.13 in 10.0 mi NNE 4.6 mph - N/A   Clear
8:55 PM 48.2 °F - 25.5 °F 41% 30.14 in 10.0 mi NNE 5.8 mph - N/A   Clear
9:15 PM 47.7 °F - 25.5 °F 42% 30.14 in 10.0 mi NE 6.9 mph - N/A   Clear
9:35 PM 46.6 °F - 25.2 °F 43% 30.14 in 10.0 mi NE 6.9 mph - N/A   Clear
9:55 PM 46.0 °F 40.6 °F 23.2 °F 41% 30.14 in 10.0 mi NE 11.5 mph - N/A   Clear
10:15 PM 45.5 °F 40.3 °F 22.6 °F 41% 30.14 in 10.0 mi NE 10.4 mph - N/A   Clear
10:35 PM 44.6 °F 40.2 °F 23.0 °F 43% 30.14 in 10.0 mi NE 8.1 mph - N/A   Clear
10:55 PM 43.9 °F 38.3 °F 24.4 °F 46% 30.14 in 10.0 mi NE 10.4 mph - N/A   Clear
11:15 PM 42.8 °F 37.5 °F 24.8 °F 49% 30.13 in 10.0 mi ENE 9.2 mph - N/A   Clear
11:35 PM 42.1 °F 37.1 °F 25.3 °F 52% 30.13 in 10.0 mi ENE 8.1 mph - N/A   Clear
11:55 PM 41.2 °F 36.0 °F 27.5 °F 58% 30.12 in 10.0 mi East 8.1 mph - N/A   Clear